Year,Month,Day,Hour,Minute,Value (Times are PST for barometer in hPa)
2022,02,22,00,00,1016.76
2022,02,22,00,01,1016.76
2022,02,22,00,02,1019.56
2022,02,22,00,03,1020.39
2022,02,22,00,04,1020.42
2022,02,22,00,05,1020.41
2022,02,22,00,06,1020.41
2022,02,22,00,07,1020.44
2022,02,22,00,08,1020.48
2022,02,22,00,09,1020.46
2022,02,22,00,10,1020.50
2022,02,22,00,11,1020.50
2022,02,22,00,12,1020.49
2022,02,22,00,13,1020.59
2022,02,22,00,14,1020.53
2022,02,22,00,15,1020.46
2022,02,22,00,16,1020.55
2022,02,22,00,17,1020.54
2022,02,22,00,18,1020.57
2022,02,22,00,19,1020.46
2022,02,22,00,20,1020.42
2022,02,22,00,21,1020.42
2022,02,22,00,22,1020.42
2022,02,22,00,23,1020.42
2022,02,22,00,24,1020.42
2022,02,22,00,25,1020.42
2022,02,22,00,26,1020.42
2022,02,22,00,27,1020.42
2022,02,22,00,28,1020.42
2022,02,22,00,29,1020.42
2022,02,22,00,30,1020.42
2022,02,22,00,31,1020.42
2022,02,22,00,32,1020.42
2022,02,22,00,33,1020.42
2022,02,22,00,34,1020.42
2022,02,22,00,35,1020.42
2022,02,22,00,36,1020.42
2022,02,22,00,37,1020.42
2022,02,22,00,38,1020.42
2022,02,22,00,39,1020.72
2022,02,22,00,40,1020.85
2022,02,22,00,41,1020.81
2022,02,22,00,42,1020.82
2022,02,22,00,43,1020.80
2022,02,22,00,44,1020.84
2022,02,22,00,45,1020.81
2022,02,22,00,46,1020.86
2022,02,22,00,47,1020.97
2022,02,22,00,48,1021.04
2022,02,22,00,49,1021.02
2022,02,22,00,50,1021.02
2022,02,22,00,51,1021.03
2022,02,22,00,52,1020.89
2022,02,22,00,53,1020.83
2022,02,22,00,54,1020.83
2022,02,22,00,55,1020.59
2022,02,22,00,56,1020.20
2022,02,22,00,57,1020.08
2022,02,22,00,58,1020.08
2022,02,22,00,59,1020.44
2022,02,22,01,00,1020.76
2022,02,22,01,01,1020.96
2022,02,22,01,02,1021.00
2022,02,22,01,03,1021.00
2022,02,22,01,04,1021.00
2022,02,22,01,05,1021.00
2022,02,22,01,06,1021.00
2022,02,22,01,07,1017.46
2022,02,22,01,08,1016.19
2022,02,22,01,09,1016.19
2022,02,22,01,10,1016.19
2022,02,22,01,11,1016.19
2022,02,22,01,12,1016.19
2022,02,22,01,13,1016.19
2022,02,22,01,14,1016.19
2022,02,22,01,15,1012.70
2022,02,22,01,16,1011.21
2022,02,22,01,17,1011.21
2022,02,22,01,18,1011.21
2022,02,22,01,19,1011.21
2022,02,22,01,20,1011.21
2022,02,22,01,21,1011.21
2022,02,22,01,22,1011.21
2022,02,22,01,23,1011.21
2022,02,22,01,24,1017.37
2022,02,22,01,25,1020.01
2022,02,22,01,26,1020.77
2022,02,22,01,27,1020.98
2022,02,22,01,28,1020.93
2022,02,22,01,29,1020.93
2022,02,22,01,30,1021.17
2022,02,22,01,31,1021.29
2022,02,22,01,32,1021.44
2022,02,22,01,33,1021.48
2022,02,22,01,34,1021.47
2022,02,22,01,35,1021.49
2022,02,22,01,36,1021.50
2022,02,22,01,37,1021.48
2022,02,22,01,38,1021.47
2022,02,22,01,39,1021.42
2022,02,22,01,40,1021.45
2022,02,22,01,41,1021.40
2022,02,22,01,42,1021.37
2022,02,22,01,43,1021.44
2022,02,22,01,44,1021.49
2022,02,22,01,45,1021.48
2022,02,22,01,46,1021.52
2022,02,22,01,47,1021.51
2022,02,22,01,48,1021.50
2022,02,22,01,49,1021.58
2022,02,22,01,50,1021.53
2022,02,22,01,51,1021.55
2022,02,22,01,52,1021.50
2022,02,22,01,53,1021.38
2022,02,22,01,54,1021.48
2022,02,22,01,55,1021.56
2022,02,22,01,56,1021.64
2022,02,22,01,57,1021.36
2022,02,22,01,58,1021.02
2022,02,22,01,59,1020.88
2022,02,22,02,00,1021.03
2022,02,22,02,01,1021.46
2022,02,22,02,02,1021.61
2022,02,22,02,03,1021.61
2022,02,22,02,04,1021.63
2022,02,22,02,05,1021.62
2022,02,22,02,06,1021.61
2022,02,22,02,07,1021.61
2022,02,22,02,08,1021.61
2022,02,22,02,09,1021.65
2022,02,22,02,10,1021.65
2022,02,22,02,11,1021.66
2022,02,22,02,12,1021.63
2022,02,22,02,13,1021.63
2022,02,22,02,14,1021.59
2022,02,22,02,15,1021.64
2022,02,22,02,16,1021.65
2022,02,22,02,17,1021.64
2022,02,22,02,18,1021.64
2022,02,22,02,19,1021.64
2022,02,22,02,20,1021.62
2022,02,22,02,21,1021.63
2022,02,22,02,22,1021.66
2022,02,22,02,23,1021.75
2022,02,22,02,24,1021.78
2022,02,22,02,25,1021.73
2022,02,22,02,26,1021.78
2022,02,22,02,27,1021.83
2022,02,22,02,28,1021.91
2022,02,22,02,29,1021.80
2022,02,22,02,30,1021.79
2022,02,22,02,31,1021.76
2022,02,22,02,32,1021.72
2022,02,22,02,33,1021.73
2022,02,22,02,34,1021.72
2022,02,22,02,35,1021.78
2022,02,22,02,36,1021.83
2022,02,22,02,37,1021.82
2022,02,22,02,38,1021.81
2022,02,22,02,39,1021.83
2022,02,22,02,40,1021.91
2022,02,22,02,41,1021.99
2022,02,22,02,42,1022.01
2022,02,22,02,43,1021.96
2022,02,22,02,44,1021.97
2022,02,22,02,45,1021.93
2022,02,22,02,46,1021.93
2022,02,22,02,47,1022.06
2022,02,22,02,48,1021.98
2022,02,22,02,49,1021.92
2022,02,22,02,50,1021.93
2022,02,22,02,51,1021.90
2022,02,22,02,52,1021.88
2022,02,22,02,53,1021.90
2022,02,22,02,54,1021.89
2022,02,22,02,55,1021.92
2022,02,22,02,56,1021.94
2022,02,22,02,57,1021.99
2022,02,22,02,58,1022.01
2022,02,22,02,59,1022.04
2022,02,22,03,00,1022.05
2022,02,22,03,01,1022.05
2022,02,22,03,02,1022.05
2022,02,22,03,03,1022.00
2022,02,22,03,06,1022.02
2022,02,22,03,07,1022.04
2022,02,22,03,08,1022.08
2022,02,22,03,09,1021.99
2022,02,22,03,10,1022.07
2022,02,22,03,11,1022.08
2022,02,22,03,12,1022.02
2022,02,22,03,13,1021.61
2022,02,22,03,14,1021.36
2022,02,22,03,15,1021.57
2022,02,22,03,16,1021.76
2022,02,22,03,17,1022.08
2022,02,22,03,18,1022.06
2022,02,22,03,19,1022.10
2022,02,22,03,20,1022.14
2022,02,22,03,21,1022.15
2022,02,22,03,22,1022.12
2022,02,22,03,23,1022.06
2022,02,22,03,24,1022.05
2022,02,22,03,25,1022.14
2022,02,22,03,26,1022.12
2022,02,22,03,27,1022.17
2022,02,22,03,28,1022.18
2022,02,22,03,29,1022.15
2022,02,22,03,30,1022.15
2022,02,22,03,31,1022.18
2022,02,22,03,32,1022.21
2022,02,22,03,33,1022.30
2022,02,22,03,34,1022.35
2022,02,22,03,35,1022.38
2022,02,22,03,36,1022.33
2022,02,22,03,37,1022.35
2022,02,22,03,38,1022.39
2022,02,22,03,39,1022.36
2022,02,22,03,40,1022.38
2022,02,22,03,41,1022.36
2022,02,22,03,42,1022.29
2022,02,22,03,43,1022.28
2022,02,22,03,44,1022.34
2022,02,22,03,45,1022.32
2022,02,22,03,46,1022.35
2022,02,22,03,47,1022.35
2022,02,22,03,48,1022.35
2022,02,22,03,49,1022.38
2022,02,22,03,50,1022.30
2022,02,22,03,51,1022.34
2022,02,22,03,52,1022.35
2022,02,22,03,53,1022.32
2022,02,22,03,54,1022.32
2022,02,22,03,55,1022.43
2022,02,22,03,56,1022.42
2022,02,22,03,57,1022.39
2022,02,22,03,58,1022.33
2022,02,22,03,59,1022.43
2022,02,22,04,00,1022.45
2022,02,22,04,01,1022.45
2022,02,22,04,02,1022.42
2022,02,22,04,03,1022.45
2022,02,22,04,04,1022.53
2022,02,22,04,05,1022.59
2022,02,22,04,06,1022.53
2022,02,22,04,07,1022.52
2022,02,22,04,08,1022.54
2022,02,22,04,09,1022.59
2022,02,22,04,10,1022.59
2022,02,22,04,11,1022.59
2022,02,22,04,12,1022.62
2022,02,22,04,13,1022.59
2022,02,22,04,14,1022.62
2022,02,22,04,15,1022.53
2022,02,22,04,16,1022.52
2022,02,22,04,17,1022.58
2022,02,22,04,18,1022.56
2022,02,22,04,19,1022.64
2022,02,22,04,20,1022.53
2022,02,22,04,21,1022.69
2022,02,22,04,22,1022.67
2022,02,22,04,23,1022.63
2022,02,22,04,24,1022.65
2022,02,22,04,25,1022.66
2022,02,22,04,26,1022.71
2022,02,22,04,27,1022.75
2022,02,22,04,28,1022.76
2022,02,22,04,29,1022.82
2022,02,22,04,30,1022.85
2022,02,22,04,31,1022.83
2022,02,22,04,32,1022.74
2022,02,22,04,33,1022.81
2022,02,22,04,34,1022.83
2022,02,22,04,35,1022.88
2022,02,22,04,36,1022.81
2022,02,22,04,37,1022.88
2022,02,22,04,38,1022.84
2022,02,22,04,39,1022.86
2022,02,22,04,40,1022.86
2022,02,22,04,41,1022.92
2022,02,22,04,42,1022.96
2022,02,22,04,43,1022.99
2022,02,22,04,44,1022.99
2022,02,22,04,45,1023.02
2022,02,22,04,46,1023.12
2022,02,22,04,47,1023.07
2022,02,22,04,48,1023.06
2022,02,22,04,49,1023.03
2022,02,22,04,50,1023.03
2022,02,22,04,51,1023.09
2022,02,22,04,52,1023.07
2022,02,22,04,53,1023.14
2022,02,22,04,54,1023.13
2022,02,22,04,55,1023.07
2022,02,22,04,56,1023.03
2022,02,22,04,57,1023.17
2022,02,22,04,58,1023.14
2022,02,22,04,59,1023.16
2022,02,22,05,00,1023.08
2022,02,22,05,01,1023.06
2022,02,22,05,02,1023.18
2022,02,22,05,03,1023.14
2022,02,22,05,04,1023.13
2022,02,22,05,05,1023.16
2022,02,22,05,06,1023.22
2022,02,22,05,07,1023.23
2022,02,22,05,08,1023.17
2022,02,22,05,09,1023.22
2022,02,22,05,10,1023.38
2022,02,22,05,11,1023.32
2022,02,22,05,12,1023.27
2022,02,22,05,13,1023.27
2022,02,22,05,14,1023.32
2022,02,22,05,15,1023.28
2022,02,22,05,16,1023.27
2022,02,22,05,17,1023.35
2022,02,22,05,18,1023.37
2022,02,22,05,19,1023.39
2022,02,22,05,20,1023.32
2022,02,22,05,21,1023.33
2022,02,22,05,22,1023.39
2022,02,22,05,23,1023.40
2022,02,22,05,24,1023.46
2022,02,22,05,25,1023.44
2022,02,22,05,26,1023.52
2022,02,22,05,27,1023.54
2022,02,22,05,28,1023.45
2022,02,22,05,29,1023.49
2022,02,22,05,30,1023.47
2022,02,22,05,31,1023.53
2022,02,22,05,32,1023.51
2022,02,22,05,33,1023.50
2022,02,22,05,34,1023.61
2022,02,22,05,35,1023.50
2022,02,22,05,36,1023.50
2022,02,22,05,37,1023.64
2022,02,22,05,38,1023.64
2022,02,22,05,39,1023.61
2022,02,22,05,40,1023.57
2022,02,22,05,41,1023.71
2022,02,22,05,42,1023.68
2022,02,22,05,43,1023.61
2022,02,22,05,44,1023.66
2022,02,22,05,45,1023.73
2022,02,22,05,46,1023.66
2022,02,22,05,47,1023.61
2022,02,22,05,48,1023.60
2022,02,22,05,49,1023.63
2022,02,22,05,50,1023.66
2022,02,22,05,51,1023.67
2022,02,22,05,52,1023.59
2022,02,22,05,53,1023.65
2022,02,22,05,54,1023.70
2022,02,22,05,55,1023.74
2022,02,22,05,56,1023.71
2022,02,22,05,57,1023.73
2022,02,22,05,58,1023.68
2022,02,22,05,59,1023.70
2022,02,22,06,00,1023.71
2022,02,22,06,01,1023.71
2022,02,22,06,02,1023.76
2022,02,22,06,03,1023.74
2022,02,22,06,04,1023.80
2022,02,22,06,05,1023.78
2022,02,22,06,06,1023.77
2022,02,22,06,07,1023.77
2022,02,22,06,08,1023.77
2022,02,22,06,09,1023.77
2022,02,22,06,10,1023.80
2022,02,22,06,11,1023.81
2022,02,22,06,12,1023.87
2022,02,22,06,13,1023.93
2022,02,22,06,14,1023.91
2022,02,22,06,15,1023.85
2022,02,22,06,16,1023.96
2022,02,22,06,17,1023.98
2022,02,22,06,18,1023.92
2022,02,22,06,19,1023.97
2022,02,22,06,20,1023.98
2022,02,22,06,21,1023.98
2022,02,22,06,22,1023.98
2022,02,22,06,23,1024.00
2022,02,22,06,24,1023.98
2022,02,22,06,25,1024.01
2022,02,22,06,26,1024.04
2022,02,22,06,27,1024.01
2022,02,22,06,28,1024.01
2022,02,22,06,29,1024.04
2022,02,22,06,30,1024.07
2022,02,22,06,31,1024.16
2022,02,22,06,32,1024.20
2022,02,22,06,33,1024.24
2022,02,22,06,34,1024.19
2022,02,22,06,35,1024.20
2022,02,22,06,36,1024.21
2022,02,22,06,37,1024.30
2022,02,22,06,38,1024.32
2022,02,22,06,39,1024.32
2022,02,22,06,40,1024.23
2022,02,22,06,41,1024.35
2022,02,22,06,42,1024.38
2022,02,22,06,43,1024.35
2022,02,22,06,44,1024.37
2022,02,22,06,45,1024.38
2022,02,22,06,46,1024.44
2022,02,22,06,47,1024.45
2022,02,22,06,48,1024.48
2022,02,22,06,49,1024.45
2022,02,22,06,50,1024.45
2022,02,22,06,51,1024.42
2022,02,22,06,52,1024.45
2022,02,22,06,53,1024.39
2022,02,22,06,54,1024.42
2022,02,22,06,55,1024.39
2022,02,22,06,56,1024.46
2022,02,22,06,57,1024.48
2022,02,22,06,58,1024.51
2022,02,22,06,59,1024.58
2022,02,22,07,00,1024.62
2022,02,22,07,01,1024.59
2022,02,22,07,02,1024.62
2022,02,22,07,03,1024.73
2022,02,22,07,04,1024.64
2022,02,22,07,05,1024.56
2022,02,22,07,06,1024.26
2022,02,22,07,07,1024.62
2022,02,22,07,08,1024.75
2022,02,22,07,09,1024.70
2022,02,22,07,10,1024.78
2022,02,22,07,11,1024.70
2022,02,22,07,12,1024.69
2022,02,22,07,13,1024.71
2022,02,22,07,14,1024.75
2022,02,22,07,15,1024.87
2022,02,22,07,16,1024.81
2022,02,22,07,17,1024.77
2022,02,22,07,18,1024.79
2022,02,22,07,19,1024.68
2022,02,22,07,20,1024.60
2022,02,22,07,21,1024.62
2022,02,22,07,22,1024.79
2022,02,22,07,23,1024.77
2022,02,22,07,24,1024.78
2022,02,22,07,25,1024.79
2022,02,22,07,26,1024.79
2022,02,22,07,27,1024.79
2022,02,22,07,28,1024.82
2022,02,22,07,29,1024.82
2022,02,22,07,30,1024.82
2022,02,22,07,31,1024.88
2022,02,22,07,32,1024.97
2022,02,22,07,33,1024.91
2022,02,22,07,34,1024.91
2022,02,22,07,35,1024.92
2022,02,22,07,36,1024.53
2022,02,22,07,37,1024.51
2022,02,22,07,38,1024.66
2022,02,22,07,39,1024.94
2022,02,22,07,40,1025.02
2022,02,22,07,41,1024.97
2022,02,22,07,42,1025.02
2022,02,22,07,43,1025.03
2022,02,22,07,44,1025.08
2022,02,22,07,45,1025.09
2022,02,22,07,46,1025.09
2022,02,22,07,47,1025.09
2022,02,22,07,48,1025.09
2022,02,22,07,49,1025.12
2022,02,22,07,50,1025.05
2022,02,22,07,51,1025.14
2022,02,22,07,52,1025.16
2022,02,22,07,53,1025.16
2022,02,22,07,54,1025.24
2022,02,22,07,55,1024.83
2022,02,22,07,56,1024.56
2022,02,22,07,57,1024.78
2022,02,22,07,58,1025.29
2022,02,22,07,59,1024.97
2022,02,22,08,00,1024.76
2022,02,22,08,01,1025.15
2022,02,22,08,02,1025.26
2022,02,22,08,03,1025.26
2022,02,22,08,04,1025.37
2022,02,22,08,05,1025.38
2022,02,22,08,06,1025.40
2022,02,22,08,07,1025.40
2022,02,22,08,08,1025.40
2022,02,22,08,09,1025.40
2022,02,22,08,10,1025.40
2022,02,22,08,11,1025.40
2022,02,22,08,12,1025.40
2022,02,22,08,13,1025.40
2022,02,22,08,14,1025.40
2022,02,22,08,15,1025.40
2022,02,22,08,16,1025.40
2022,02,22,08,17,1025.40
2022,02,22,08,18,1025.40
2022,02,22,08,19,1015.05
2022,02,22,08,20,1012.46
2022,02,22,08,21,1012.46
2022,02,22,08,22,1012.46
2022,02,22,08,23,1012.46
2022,02,22,08,24,1012.46
2022,02,22,08,25,1012.46
2022,02,22,08,26,1012.46
2022,02,22,08,27,1012.46
2022,02,22,08,28,1012.46
2022,02,22,08,29,1012.46
2022,02,22,08,30,1012.46
2022,02,22,08,31,1012.46
2022,02,22,08,32,1018.20
2022,02,22,08,33,1019.64
2022,02,22,08,34,1019.64
2022,02,22,08,35,1019.64
2022,02,22,08,36,1019.64
2022,02,22,08,37,1019.64
2022,02,22,08,38,1019.64
2022,02,22,08,39,1019.64
2022,02,22,08,40,1019.64
2022,02,22,08,41,1019.64
2022,02,22,08,42,1019.64
2022,02,22,08,43,1019.64
2022,02,22,08,44,1019.64
2022,02,22,08,45,1019.64
2022,02,22,08,46,1019.64
2022,02,22,08,47,1019.64
2022,02,22,08,48,1019.64
2022,02,22,08,49,1012.83
2022,02,22,08,50,1011.03
2022,02,22,08,51,1011.04
2022,02,22,08,52,1011.04
2022,02,22,08,53,1011.04
2022,02,22,08,54,1011.04
2022,02,22,08,55,1011.04
2022,02,22,08,56,1011.04
2022,02,22,08,57,1011.04
2022,02,22,08,58,1011.04
2022,02,22,08,59,1011.04
2022,02,22,09,00,1011.04
2022,02,22,09,01,1011.04
2022,02,22,09,02,1011.04
2022,02,22,09,03,1011.04
2022,02,22,09,04,1011.04
2022,02,22,09,05,1011.04
2022,02,22,09,06,1015.81
2022,02,22,09,07,1017.00
2022,02,22,09,08,1014.07
2022,02,22,09,09,1013.34
2022,02,22,09,10,1013.34
2022,02,22,09,11,1013.34
2022,02,22,09,12,1013.34
2022,02,22,09,13,1013.34
2022,02,22,09,14,1013.34
2022,02,22,09,15,1013.34
2022,02,22,09,16,1013.34
2022,02,22,09,17,1013.34
2022,02,22,09,18,1013.34
2022,02,22,09,19,1013.34
2022,02,22,09,20,1013.34
2022,02,22,09,21,1013.34
2022,02,22,09,22,1013.34
2022,02,22,09,23,1013.34
2022,02,22,09,24,1013.34
2022,02,22,09,25,1013.34
2022,02,22,09,26,1011.15
2022,02,22,09,27,1010.60
2022,02,22,09,28,1010.60
2022,02,22,09,29,1009.54
2022,02,22,09,30,1009.28
2022,02,22,09,31,1010.21
2022,02,22,09,32,1010.46
2022,02,22,09,33,1010.46
2022,02,22,09,34,1009.84
2022,02,22,09,35,1009.69
2022,02,22,09,36,1009.69
2022,02,22,09,37,1009.69
2022,02,22,09,38,1009.69
2022,02,22,09,39,1009.69
2022,02,22,09,40,1009.69
2022,02,22,09,41,1009.69
2022,02,22,09,42,1009.69
2022,02,22,09,43,1009.69
2022,02,22,09,44,1009.69
2022,02,22,09,45,1009.69
2022,02,22,09,46,1010.15
2022,02,22,09,47,1010.61
2022,02,22,09,48,1010.70
2022,02,22,09,49,1010.70
2022,02,22,09,50,1010.70
2022,02,22,09,51,1010.70
2022,02,22,09,52,1010.70
2022,02,22,09,53,1010.02
2022,02,22,09,54,1009.79
2022,02,22,09,55,1011.47
2022,02,22,09,56,1011.89
2022,02,22,09,57,1009.56
2022,02,22,09,58,1008.84
2022,02,22,09,59,1009.11
2022,02,22,10,00,1009.18
2022,02,22,10,01,1009.18
2022,02,22,10,02,1011.02
2022,02,22,10,03,1011.40
2022,02,22,10,04,1011.38
2022,02,22,10,05,1011.38
2022,02,22,10,06,1011.38
2022,02,22,10,07,1011.38
2022,02,22,10,08,1011.38
2022,02,22,10,09,1011.38
2022,02,22,10,10,1011.38
2022,02,22,10,11,1011.38
2022,02,22,10,12,1011.38
2022,02,22,10,13,1011.38
2022,02,22,10,14,1011.38
2022,02,22,10,15,1011.38
2022,02,22,10,16,1011.38
2022,02,22,10,17,1011.38
2022,02,22,10,18,1011.38
2022,02,22,10,19,1011.38
2022,02,22,10,20,1011.38
2022,02,22,10,21,1011.38
2022,02,22,10,22,1011.38
2022,02,22,10,23,1011.38
2022,02,22,10,24,1011.38
2022,02,22,10,25,1011.38
2022,02,22,10,26,1011.38
2022,02,22,10,27,1011.38
2022,02,22,10,28,1011.38
2022,02,22,10,29,1011.38
2022,02,22,10,30,1011.38
2022,02,22,10,31,1011.38
2022,02,22,10,32,1011.38
2022,02,22,10,33,1011.38
2022,02,22,10,34,1011.38
2022,02,22,10,35,1011.38
2022,02,22,10,36,975.97
2022,02,22,10,37,967.12
2022,02,22,10,38,967.12
2022,02,22,10,39,967.12
2022,02,22,10,40,967.12
2022,02,22,10,41,967.12
2022,02,22,10,42,967.12
2022,02,22,10,43,967.12
2022,02,22,10,44,967.12
2022,02,22,10,45,967.12
2022,02,22,10,46,967.12
2022,02,22,10,47,967.12
2022,02,22,10,48,967.12
2022,02,22,10,49,967.12
2022,02,22,10,50,967.12
2022,02,22,10,51,967.12
2022,02,22,10,52,967.12
2022,02,22,10,53,967.12
2022,02,22,10,54,967.12
2022,02,22,10,55,967.12
2022,02,22,10,56,967.12
2022,02,22,10,57,967.12
2022,02,22,10,58,967.12
2022,02,22,10,59,967.12
2022,02,22,11,00,967.12
2022,02,22,11,01,967.12
2022,02,22,11,02,967.12
2022,02,22,11,03,967.12
2022,02,22,11,04,977.82
2022,02,22,11,05,980.50
2022,02,22,11,06,980.50
2022,02,22,11,07,980.50
2022,02,22,11,08,980.50
2022,02,22,11,09,980.50
2022,02,22,11,10,980.50
2022,02,22,11,11,980.50
2022,02,22,11,12,980.50
2022,02,22,11,13,980.50
2022,02,22,11,14,980.50
2022,02,22,11,15,980.50
2022,02,22,11,16,980.50
2022,02,22,11,17,980.50
2022,02,22,11,18,980.50
2022,02,22,11,19,980.50
2022,02,22,11,20,980.50
2022,02,22,11,21,980.50
2022,02,22,11,22,980.50
2022,02,22,11,23,980.50
2022,02,22,11,24,980.50
2022,02,22,11,25,980.50
2022,02,22,11,26,980.50
2022,02,22,11,27,980.50
2022,02,22,11,28,980.50
2022,02,22,11,29,980.50
2022,02,22,11,30,980.50
2022,02,22,11,31,980.50
2022,02,22,11,32,980.50
2022,02,22,11,33,980.50
2022,02,22,11,34,980.50
2022,02,22,11,35,980.50
2022,02,22,11,36,980.50
2022,02,22,11,37,980.50
2022,02,22,11,38,980.50
2022,02,22,11,39,980.50
2022,02,22,11,40,980.50
2022,02,22,11,41,980.50
2022,02,22,11,42,980.50
2022,02,22,11,43,980.50
2022,02,22,11,44,980.50
2022,02,22,11,45,980.50
2022,02,22,11,46,980.50
2022,02,22,11,47,980.50
2022,02,22,11,48,980.50
2022,02,22,11,49,980.50
2022,02,22,11,50,980.50
2022,02,22,11,51,978.90
2022,02,22,11,52,978.50
2022,02,22,11,53,978.50
2022,02,22,11,54,978.50
2022,02,22,11,55,978.50
2022,02,22,11,56,978.50
2022,02,22,11,57,978.50
2022,02,22,11,58,978.50
2022,02,22,11,59,978.50
2022,02,22,12,00,978.50
2022,02,22,12,01,978.50
2022,02,22,12,02,978.50
2022,02,22,12,03,978.50
2022,02,22,12,04,978.50
2022,02,22,12,05,978.50
2022,02,22,12,06,997.46
2022,02,22,12,07,1002.51
2022,02,22,12,08,1002.51
2022,02,22,12,09,1002.51
2022,02,22,12,10,1002.51
2022,02,22,12,11,1002.51
2022,02,22,12,12,1002.51
2022,02,22,12,13,1002.51
2022,02,22,12,14,1002.51
2022,02,22,12,15,1002.51
2022,02,22,12,16,1002.51
2022,02,22,12,17,1002.51
2022,02,22,12,18,1002.79
2022,02,22,12,19,1002.88
2022,02,22,12,20,1002.88
2022,02,22,12,21,1002.88
2022,02,22,12,22,1002.88
2022,02,22,12,23,1002.88
2022,02,22,12,24,1002.88
2022,02,22,12,25,1002.88
2022,02,22,12,26,1002.88
2022,02,22,12,27,1002.88
2022,02,22,12,28,1002.88
2022,02,22,12,29,1002.88
2022,02,22,12,30,1002.88
2022,02,22,12,31,1002.88
2022,02,22,12,32,1002.88
2022,02,22,12,33,1002.88
2022,02,22,12,34,1002.88
2022,02,22,12,35,1002.88
2022,02,22,12,36,1002.88
2022,02,22,12,37,1002.88
2022,02,22,12,38,1002.88
2022,02,22,12,39,1002.88
2022,02,22,12,40,1002.88
2022,02,22,12,41,1002.88
2022,02,22,12,42,1002.88
2022,02,22,12,43,1002.88
2022,02,22,12,44,1002.88
2022,02,22,12,45,1002.88
2022,02,22,12,46,1002.88
2022,02,22,12,47,1002.88
2022,02,22,12,48,1002.88
2022,02,22,12,49,1002.88
2022,02,22,12,50,1002.88
2022,02,22,12,51,1002.88
2022,02,22,12,52,1002.88
2022,02,22,12,53,1002.88
2022,02,22,12,54,1002.88
2022,02,22,12,55,1002.88
2022,02,22,12,56,1002.88
2022,02,22,12,57,1002.88
2022,02,22,12,58,1002.88
2022,02,22,12,59,1002.88
2022,02,22,13,00,1002.88
2022,02,22,13,01,1002.88
2022,02,22,13,02,1002.88
2022,02,22,13,03,1002.88
2022,02,22,13,04,1002.88
2022,02,22,13,05,1002.88
2022,02,22,13,06,1002.88
2022,02,22,13,07,1002.88
2022,02,22,13,08,1002.88
2022,02,22,13,09,1002.88
2022,02,22,13,10,1002.88
2022,02,22,15,36,942.26
2022,02,22,15,37,942.26
2022,02,22,15,38,942.26
2022,02,22,15,39,937.72
2022,02,22,15,40,936.20
2022,02,22,15,41,954.86
2022,02,22,15,42,961.53
2022,02,22,15,43,961.53
2022,02,22,15,44,961.53
2022,02,22,15,45,961.53
2022,02,22,15,46,961.53
2022,02,22,15,47,961.53
2022,02,22,15,48,961.53
2022,02,22,15,49,961.53
2022,02,22,15,50,961.53
2022,02,22,15,51,961.53
2022,02,22,15,52,961.53
2022,02,22,15,53,961.53
2022,02,22,15,54,961.53
2022,02,22,15,55,961.53
2022,02,22,15,56,961.53
2022,02,22,15,57,961.53
2022,02,22,15,58,961.53
2022,02,22,15,59,961.53
2022,02,22,16,00,961.53
2022,02,22,16,01,961.53
2022,02,22,16,02,961.53
2022,02,22,16,03,961.53
2022,02,22,16,04,961.53
2022,02,22,16,05,961.53
2022,02,22,16,06,973.03
2022,02,22,16,07,976.87
2022,02,22,16,08,976.87
2022,02,22,16,09,976.87
2022,02,22,16,10,976.87
2022,02,22,16,11,976.87
2022,02,22,16,12,976.87
2022,02,22,16,13,976.87
2022,02,22,16,14,976.87
2022,02,22,16,15,976.87
2022,02,22,16,16,989.52
2022,02,22,16,17,994.04
2022,02,22,16,18,994.04
2022,02,22,16,19,994.04
2022,02,22,16,20,994.04
2022,02,22,16,21,994.04
2022,02,22,16,22,994.04
2022,02,22,16,23,994.04
2022,02,22,16,24,994.04
2022,02,22,16,25,994.04
2022,02,22,16,26,994.04
2022,02,22,16,27,994.04
2022,02,22,16,28,994.04
2022,02,22,16,29,994.04
2022,02,22,16,30,994.04
2022,02,22,16,31,994.04
2022,02,22,16,32,994.04
2022,02,22,16,33,1008.14
2022,02,22,16,34,1013.17
2022,02,22,16,35,1013.17
2022,02,22,16,36,1013.17
2022,02,22,16,37,1013.17
2022,02,22,16,38,1003.05
2022,02,22,16,39,998.71
2022,02,22,16,40,998.71
2022,02,22,16,41,998.71
2022,02,22,16,42,1002.53
2022,02,22,16,43,1004.17
2022,02,22,16,44,1004.17
2022,02,22,16,45,1004.17
2022,02,22,16,46,1004.17
2022,02,22,16,47,1004.17
2022,02,22,16,48,1004.17
2022,02,22,16,49,1004.17
2022,02,22,16,50,1004.17
2022,02,22,16,51,1004.17
2022,02,22,16,52,1004.17
2022,02,22,16,53,1004.17
2022,02,22,16,54,1004.17
2022,02,22,16,55,1004.17
2022,02,22,16,56,1004.17
2022,02,22,16,57,1005.47
2022,02,22,16,58,1006.03
2022,02,22,16,59,1006.84
2022,02,22,17,00,1007.11
2022,02,22,17,01,1007.11
2022,02,22,17,02,1007.11
2022,02,22,17,03,1007.11
2022,02,22,17,04,1007.11
2022,02,22,17,05,1007.11
2022,02,22,17,06,1007.11
2022,02,22,17,07,1009.77
2022,02,22,17,08,1010.91
2022,02,22,17,09,1010.91
2022,02,22,17,10,1010.91
2022,02,22,17,11,1010.91
2022,02,22,17,12,1010.91
2022,02,22,17,13,1010.91
2022,02,22,17,14,1010.91
2022,02,22,17,15,1016.64
2022,02,22,17,16,1019.39
2022,02,22,17,17,1019.51
2022,02,22,17,18,1019.51
2022,02,22,17,19,1021.06
2022,02,22,17,20,1021.61
2022,02,22,17,21,1025.97
2022,02,22,17,22,1027.84
2022,02,22,17,23,1027.84
2022,02,22,17,24,1027.84
2022,02,22,17,25,1027.84
2022,02,22,17,26,1027.84
2022,02,22,17,27,1027.84
2022,02,22,17,28,1027.84
2022,02,22,17,29,1027.84
2022,02,22,17,30,1027.84
2022,02,22,17,31,1027.84
2022,02,22,17,32,1024.66
2022,02,22,17,33,1023.16
2022,02,22,17,34,1023.10
2022,02,22,17,35,1023.10
2022,02,22,17,36,1023.10
2022,02,22,17,37,1023.10
2022,02,22,17,38,1023.10
2022,02,22,17,39,1023.10
2022,02,22,17,40,1023.10
2022,02,22,17,41,1023.10
2022,02,22,17,42,1023.10
2022,02,22,17,43,1023.10
2022,02,22,17,44,1023.10
2022,02,22,17,45,1023.10
2022,02,22,17,46,1026.32
2022,02,22,17,47,1027.34
2022,02,22,17,48,1027.19
2022,02,22,17,49,1028.28
2022,02,22,17,50,1028.75
2022,02,22,17,51,1028.75
2022,02,22,17,52,1028.75
2022,02,22,17,53,1028.63
2022,02,22,17,54,1028.18
2022,02,22,17,55,1028.04
2022,02,22,17,56,1028.04
2022,02,22,17,57,1028.04
2022,02,22,17,58,1025.08
2022,02,22,17,59,1023.81
2022,02,22,18,00,1020.35
2022,02,22,18,01,1018.97
2022,02,22,18,02,1019.17
2022,02,22,18,03,1019.17
2022,02,22,18,04,1022.47
2022,02,22,18,05,1023.88
2022,02,22,18,06,1022.29
2022,02,22,18,07,1021.95
2022,02,22,18,08,1021.72
2022,02,22,18,09,1021.57
2022,02,22,18,10,1021.57
2022,02,22,18,11,1022.65
2022,02,22,18,12,1023.03
2022,02,22,18,13,1023.03
2022,02,22,18,14,1023.03
2022,02,22,18,15,1023.38
2022,02,22,18,16,1023.50
2022,02,22,18,17,1020.09
2022,02,22,18,18,1018.63
2022,02,22,18,19,1018.63
2022,02,22,18,20,1018.63
2022,02,22,18,21,1018.63
2022,02,22,18,22,1019.23
2022,02,22,18,23,1019.51
2022,02,22,18,24,1019.51
2022,02,22,18,25,1019.51
2022,02,22,18,26,1019.51
2022,02,22,18,27,1019.51
2022,02,22,18,28,1026.27
2022,02,22,18,29,1029.01